Hourly Weather Linz

Today, 10 July, Friday

Time Temperature Precipitation Wind Pressure Humidity
00:00 +19°C° 0 mm 1 mps 734 mmHg 87%
01:00 +19°C° 0 mm 1 mps 733 mmHg 88%
02:00 +19°C° 0 mm 1 mps 733 mmHg 89%
03:00 +18°C° 0 mm 1 mps 733 mmHg 89%
04:00 +18°C° 0 mm 1 mps 733 mmHg 90%
05:00 +20°C° 0 mm 1 mps 733 mmHg 86%
06:00 +21°C° 0 mm 1 mps 733 mmHg 83%
07:00 +21°C° 0 mm 0 mps 733 mmHg 78%
08:00 +25°C° 0 mm 1 mps 733 mmHg 72%
09:00 +27°C° 0 mm 1 mps 733 mmHg 66%
10:00 +29°C° 0 mm 1 mps 732 mmHg 59%
11:00 +30°C° 0 mm 1 mps 732 mmHg 55%
12:00 +31°C° 0 mm 1 mps 732 mmHg 51%
13:00 +32°C° 0 mm 2 mps 732 mmHg 46%
14:00 +32°C° 0 mm 2 mps 731 mmHg 48%
15:00 +32°C° 0 mm 1 mps 731 mmHg 49%
16:00 +32°C° 0 mm 1 mps 731 mmHg 50%
17:00 +29°C° 0.9 mm 2 mps 731 mmHg 63%
18:00 +26°C° 0.9 mm 2 mps 731 mmHg 75%
19:00 +24°C° 0.9 mm 3 mps 731 mmHg 87%
20:00 +22°C° 2.6 mm 3 mps 732 mmHg 90%
21:00 +20°C° 2.6 mm 3 mps 733 mmHg 93%
22:00 +19°C° 2.6 mm 3 mps 734 mmHg 96%
23:00 +19°C° 1.4 mm 2 mps 734 mmHg 96%

Tomorrow, 11 July, Saturday

Time Temperature Precipitation Wind Pressure Humidity
00:00 +19°C° 1.4 mm 2 mps 734 mmHg 96%
01:00 +19°C° 1.4 mm 1 mps 734 mmHg 97%
02:00 +19°C° 1.3 mm 1 mps 734 mmHg 97%
03:00 +19°C° 1.3 mm 1 mps 734 mmHg 98%
04:00 +19°C° 1.3 mm 1 mps 734 mmHg 98%
05:00 +19°C° 2.5 mm 1 mps 734 mmHg 98%
06:00 +18°C° 2.5 mm 1 mps 734 mmHg 98%
07:00 +18°C° 2.5 mm 1 mps 735 mmHg 97%
08:00 +17°C° 1.9 mm 2 mps 735 mmHg 97%
09:00 +17°C° 1.9 mm 2 mps 736 mmHg 96%
10:00 +16°C° 1.9 mm 3 mps 736 mmHg 96%
11:00 +17°C° 2 mm 2 mps 736 mmHg 94%
12:00 +17°C° 2 mm 2 mps 737 mmHg 93%
13:00 +18°C° 2 mm 1 mps 737 mmHg 91%
14:00 +18°C° 0.9 mm 1 mps 737 mmHg 91%
15:00 +18°C° 0.9 mm 1 mps 737 mmHg 92%
16:00 +18°C° 0.9 mm 1 mps 737 mmHg 92%
17:00 +18°C° 1.4 mm 1 mps 738 mmHg 92%
18:00 +18°C° 1.4 mm 1 mps 738 mmHg 93%
19:00 +16°C° 1.4 mm 1 mps 738 mmHg 94%
20:00 +16°C° 0.3 mm 1 mps 738 mmHg 94%
21:00 +15°C° 0.3 mm 1 mps 739 mmHg 94%
22:00 +15°C° 0.3 mm 1 mps 739 mmHg 94%
23:00 +14°C° 0.1 mm 1 mps 739 mmHg 94%

Day after tomorrow, 12 July, Sunday

Time Temperature Precipitation Wind Pressure Humidity
00:00 +14°C° 0.1 mm 1 mps 739 mmHg 94%
01:00 +12°C° 0.1 mm 0 mps 738 mmHg 94%
02:00 +12°C° 0.1 mm 0 mps 738 mmHg 94%
03:00 +12°C° 0.1 mm 0 mps 739 mmHg 94%
04:00 +12°C° 0.1 mm 0 mps 739 mmHg 93%
05:00 +13°C° 0 mm 0 mps 739 mmHg 91%
06:00 +14°C° 0 mm 0 mps 739 mmHg 89%
07:00 +15°C° 0 mm 0 mps 739 mmHg 87%
08:00 +18°C° 0 mm 1 mps 739 mmHg 78%
09:00 +20°C° 0 mm 1 mps 739 mmHg 68%
10:00 +21°C° 0 mm 1 mps 739 mmHg 59%
11:00 +22°C° 0 mm 1 mps 739 mmHg 57%
12:00 +22°C° 0 mm 1 mps 739 mmHg 54%
13:00 +23°C° 0 mm 1 mps 739 mmHg 51%
14:00 +23°C° 0 mm 1 mps 739 mmHg 50%
15:00 +23°C° 0 mm 1 mps 739 mmHg 50%
16:00 +23°C° 0 mm 1 mps 739 mmHg 49%
17:00 +22°C° 0 mm 1 mps 739 mmHg 56%
18:00 +21°C° 0 mm 1 mps 739 mmHg 64%
19:00 +19°C° 0 mm 1 mps 739 mmHg 71%
20:00 +18°C° 0 mm 1 mps 739 mmHg 74%
21:00 +15°C° 0 mm 1 mps 739 mmHg 78%
22:00 +14°C° 0 mm 1 mps 739 mmHg 81%
23:00 +13°C° 0 mm 1 mps 739 mmHg 82%

13 July, Monday

Time Temperature Precipitation Wind Pressure Humidity
00:00 +13°C° 0 mm 1 mps 739 mmHg 82%
01:00 +12°C° 0 mm 1 mps 739 mmHg 83%
02:00 +12°C° 0 mm 1 mps 739 mmHg 84%
03:00 +11°C° 0 mm 1 mps 739 mmHg 86%
04:00 +11°C° 0 mm 1 mps 739 mmHg 87%
05:00 +12°C° 0 mm 1 mps 739 mmHg 83%
06:00 +14°C° 0 mm 1 mps 739 mmHg 79%
07:00 +16°C° 0 mm 1 mps 739 mmHg 74%
08:00 +18°C° 0 mm 1 mps 738 mmHg 70%
09:00 +19°C° 0 mm 2 mps 738 mmHg 65%
10:00 +20°C° 0 mm 3 mps 738 mmHg 60%
11:00 +21°C° 0 mm 3 mps 738 mmHg 57%
12:00 +22°C° 0 mm 3 mps 737 mmHg 54%
13:00 +24°C° 0 mm 3 mps 737 mmHg 52%
14:00 +24°C° 0 mm 3 mps 737 mmHg 53%
15:00 +24°C° 0 mm 3 mps 736 mmHg 54%
16:00 +24°C° 0 mm 3 mps 736 mmHg 55%
17:00 +21°C° 0 mm 3 mps 736 mmHg 62%
18:00 +20°C° 0 mm 2 mps 736 mmHg 69%
19:00 +19°C° 0 mm 2 mps 736 mmHg 76%
20:00 +17°C° 0 mm 2 mps 736 mmHg 79%
21:00 +16°C° 0 mm 2 mps 736 mmHg 83%
22:00 +14°C° 0 mm 2 mps 736 mmHg 86%
23:00 +14°C° 0 mm 1 mps 736 mmHg 87%

14 July, Tuesday

Time Temperature Precipitation Wind Pressure Humidity
00:00 +13°C° 0 mm 1 mps 736 mmHg 87%
01:00 +13°C° 0 mm 1 mps 736 mmHg 88%
02:00 +12°C° 0 mm 1 mps 736 mmHg 89%
03:00 +12°C° 0 mm 1 mps 735 mmHg 90%
04:00 +12°C° 0 mm 1 mps 735 mmHg 92%
05:00 +13°C° 0 mm 1 mps 735 mmHg 88%
06:00 +14°C° 0 mm 1 mps 735 mmHg 84%
07:00 +16°C° 0 mm 1 mps 735 mmHg 80%
08:00 +17°C° 0 mm 2 mps 735 mmHg 75%
09:00 +19°C° 0 mm 2 mps 735 mmHg 70%
10:00 +21°C° 0 mm 2 mps 734 mmHg 65%
11:00 +22°C° 0 mm 3 mps 734 mmHg 63%
12:00 +24°C° 0 mm 3 mps 734 mmHg 60%
13:00 +25°C° 0 mm 3 mps 733 mmHg 58%
14:00 +25°C° 0 mm 3 mps 733 mmHg 59%
15:00 +25°C° 0 mm 3 mps 733 mmHg 61%
16:00 +25°C° 0 mm 3 mps 732 mmHg 62%
17:00 +22°C° 0 mm 3 mps 732 mmHg 68%
18:00 +21°C° 0 mm 2 mps 733 mmHg 73%
19:00 +20°C° 0 mm 2 mps 733 mmHg 78%
20:00 +18°C° 0 mm 2 mps 733 mmHg 79%
21:00 +18°C° 0 mm 1 mps 733 mmHg 80%
22:00 +16°C° 0 mm 1 mps 733 mmHg 81%
23:00 +16°C° 0 mm 1 mps 733 mmHg 82%

15 July, Wednesday

Time Temperature Precipitation Wind Pressure Humidity
00:00 +16°C° 0 mm 1 mps 733 mmHg 83%
01:00 +16°C° 0 mm 1 mps 733 mmHg 83%
02:00 +14°C° 0 mm 0 mps 733 mmHg 85%
03:00 +14°C° 0 mm 0 mps 733 mmHg 87%
04:00 +13°C° 0 mm 0 mps 733 mmHg 89%
05:00 +14°C° 0 mm 0 mps 733 mmHg 87%
06:00 +15°C° 0 mm 0 mps 733 mmHg 84%
07:00 +16°C° 0 mm 0 mps 733 mmHg 82%
08:00 +17°C° 0.1 mm 0 mps 733 mmHg 81%
09:00 +20°C° 0.1 mm 1 mps 733 mmHg 79%
10:00 +21°C° 0.1 mm 1 mps 733 mmHg 77%
11:00 +22°C° 0.2 mm 1 mps 733 mmHg 73%
12:00 +23°C° 0.2 mm 1 mps 733 mmHg 69%
13:00 +25°C° 0.2 mm 1 mps 733 mmHg 65%
14:00 +25°C° 0.1 mm 1 mps 733 mmHg 63%
15:00 +25°C° 0.1 mm 1 mps 733 mmHg 62%
16:00 +26°C° 0.1 mm 1 mps 733 mmHg 60%
17:00 +24°C° 0.3 mm 1 mps 733 mmHg 67%
18:00 +23°C° 0.3 mm 1 mps 733 mmHg 74%
19:00 +22°C° 0.3 mm 1 mps 733 mmHg 81%
20:00 +21°C° 0.3 mm 1 mps 733 mmHg 84%
21:00 +19°C° 0.3 mm 1 mps 733 mmHg 87%
22:00 +17°C° 0.3 mm 2 mps 734 mmHg 90%
23:00 +16°C° 0 mm 2 mps 734 mmHg 91%
Show more